Location: La Silve
(44.2414°N, 5.8889°E)
Time: 04:33:43
(UTC+00:00)

Cosmos 864 Rocket - Pass Details

Date: 01 December 2020
Orbit: 952 x 992 km, 82.9° (Epoch: 24 January)

Event Time Altitude Azimuth Distance (km) Brightness Sun altitude
Rises 17:10:38 0° 352° (N) 3,710 7.4 -12.5°
Reaches altitude 10° 17:13:11 10° 353° (N) 2,753 6.8 -13.0°
Maximum altitude 17:19:31 86° 82° (E) 988 4.5 -14.0°
Drops below altitude 10° 17:25:45 10° 172° (S) 2,708 6.9 -15.1°
Sets 17:28:13 0° 173° (S) 3,645 7.6 -15.5°
